Home   Weather   Sivaganga   Past weeks

Flag for India Past Weather in Sivaganga, Tamil Nadu, India — Yesterday and Last 2 Weeks

77 °F


Feels Like: 78 °F
Forecast: 75 / 92 °F
Wind: No wind

Location: Tiruchchirapalli

Current Time: Oct 22, 2016 at 7:30:06 AM

Latest Report: Oct 22, 2016 at 6:30 AM

Visibility: 1 mi

Pressure: 29.80 "Hg

Humidity: 94%

Dew Point: 75 °F

Location of SivagangaLocation

Past Weather in Sivaganga — Graph


Sivaganga Temperature Yesterday

Maximum temperature yesterday: 86 °F (at 10:00 AM)
Minimum temperature yesterday: 77 °F (at 5:30 AM)
Average temperature yesterday: 80 °F

High & Low Weather Summary for the Past Weeks

High100 °F (Oct 8, 3:00 PM)100% (Oct 13, 6:00 AM)29.89 "Hg (Oct 13, 6:00 AM)
Low75 °F (Oct 12, 11:30 PM)31% (Oct 9, 4:00 PM)29.62 "Hg (Oct 19, 4:00 PM)
Average86 °F64%29.77 "Hg
* Reported Oct 7 5:30 AM — Oct 22 6:00 AM, Sivaganga, Weather by CustomWeather, © 2016

Note: Actual official high and low records may vary slightly from our data, if they occured in-between our weather recording intervals... More about our weather records


Sivaganga Weather History for the Previous 24 Hours

Scroll right to see more
Time TempWeatherWind HumidityBarometerVisibility
6:00 AM
Sat, Oct 22
77 °FFog.2 mph94%29.80 "Hg1 mi
5:30 AM77 °FFog.2 mph94%29.77 "Hg1 mi
5:00 AM77 °FFog.2 mph94%29.77 "Hg1 mi
4:30 AM77 °FFog.2 mph94%29.77 "Hg1 mi
4:00 AM77 °FFog.No wind94%29.77 "Hg1 mi
3:30 AM77 °FFog.3 mph94%29.77 "Hg1 mi
3:00 AM77 °FFog.3 mph94%29.77 "Hg1 mi
2:30 AM77 °FFog.3 mph94%29.77 "Hg1 mi
2:00 AM77 °FFog.3 mph94%29.77 "Hg1 mi
1:30 AM77 °FFog.3 mph94%29.77 "Hg1 mi
1:00 AM77 °FFog.3 mph94%29.80 "Hg1 mi
12:30 AM77 °FFog.3 mph94%29.80 "Hg1 mi
12:00 AM77 °FFog.3 mph94%29.80 "Hg2 mi
11:30 PM
Fri, Oct 21
77 °FFog.3 mph94%29.80 "Hg2 mi
11:00 PM79 °FFog.2 mph89%29.83 "Hg2 mi
10:30 PM79 °FFog.2 mph89%29.83 "Hg2 mi
10:00 PM79 °FFog.3 mph89%29.83 "Hg2 mi
9:30 PM79 °FFog.3 mph89%29.83 "Hg2 mi
9:00 PM79 °FFog.3 mph89%29.80 "Hg2 mi
8:30 PM79 °FFog.3 mph89%29.80 "Hg2 mi
8:00 PM79 °FFog.3 mph84%29.80 "Hg2 mi
7:30 PM79 °FFog.3 mph84%29.80 "Hg2 mi
7:00 PM79 °FFog.6 mph84%29.77 "Hg2 mi
6:30 PM79 °FFog.7 mph84%29.77 "Hg1 mi
6:00 PM79 °FFog.7 mph84%29.77 "Hg1 mi
5:30 PM79 °FFog.6 mph84%29.74 "Hg1 mi
5:00 PM81 °FFog.7 mph84%29.74 "Hg1 mi
4:30 PM81 °FFog.7 mph84%29.71 "Hg1 mi
4:00 PM81 °FFog.5 mph84%29.71 "Hg1 mi
3:30 PM81 °FFog.6 mph84%29.71 "Hg1 mi
3:00 PM81 °FFog.3 mph84%29.71 "Hg1 mi
2:30 PM79 °FDrizzle. More clouds than sun.3 mph89%29.71 "Hg1 mi
2:00 PM79 °FThunderstorms. More clouds than sun.No wind89%29.74 "Hg1 mi
1:30 PM79 °FThunderstorms. More clouds than sun.No wind89%29.74 "Hg1 mi
1:00 PM82 °FLight rain. Broken clouds.6 mph79%29.77 "Hg1 mi
12:30 PM84 °FDrizzle. Broken clouds.6 mph74%29.77 "Hg1 mi
12:00 PM86 °FBroken clouds.3 mph70%29.77 "Hg2 mi
11:30 AM86 °FBroken clouds.3 mph70%29.80 "Hg2 mi
11:00 AM86 °FBroken clouds.7 mph66%29.80 "Hg2 mi
10:30 AM86 °FBroken clouds.6 mph66%29.80 "Hg1 mi
10:00 AM86 °FBroken clouds.7 mph66%29.80 "Hg1 mi
9:30 AM84 °FBroken clouds.7 mph70%29.80 "Hg1 mi
9:00 AM82 °FFog.6 mph74%29.80 "Hg1 mi
8:30 AM81 °FFog.5 mph79%29.80 "Hg1 mi
8:00 AM81 °FFog.5 mph74%29.80 "Hg1 mi
7:30 AM79 °FFog.3 mph79%29.77 "Hg1 mi
7:00 AM79 °FFog.5 mph79%29.77 "Hg1 mi
Weather by CustomWeather, © 2016

See weather overviewHow to use our weather pages